STARLINK-3876 (52354 NORAD) Tracking and Keplerian Element Data

This shows tracking and keplerian element data for the satellite.

Feedback or suggestion? Click here.




ElementValue
Catalog52354
NameSTARLINK-3876
Epoch Orbit130
Epoch Day167.08334491
Epoch Year2022
RAAN203.003
Inclination53.2174
Eccentricity0.0001378
Argument of Perigee56.878
Mean Anonmoly101.0924
Mean Motion15.62281671
Decay Rate-0.00715004
L11 52354U 22045Z 22167.08334491 -.00715004 00000+0 -86753-2 0 9991
L22 52354 53.2174 203.0030 0001378 56.8780 101.0924 15.62281671 1304

Live tracking and technical data element details for STARLINK-3876 (NORAD 52354). STARLINK-3876 can be tracked NOW for your location showing map with azimuth and elevation plus other details from your city location.

Track the satellite on the map from your city or location and see movement details for azimuth, elevation, latitude, longitude, range, height, and movement on the map or in text.







IsCatalogInMostPopularTable: catalog: 52354, numindb: 2
Update: records affected: 1



GetName: 52354 STARLINK-3876

Hit Count: updated at: Mon, 27 Jun 2022 05:13:19 GMT